FW6466 Weather Reports


Display with metric or nautical units.
time (UTC)temp
F
wind
direction
speed
MPH
gust
MPH
rain 1hr
in
rain 24hr
in
rain mn
in
humidity
%
barometer
mb
20260504021017 45 217 2.0 2.0 0.00 0.00 0.00 52 1009.6
20260504020307 46 180 1.0 2.0 0.00 0.00 0.00 50 1009.5
20260504015516 46 200 2.0 2.0 0.00 0.00 0.00 50 1009.5
20260504014809 46 225 2.0 2.0 0.00 0.00 0.00 48 1009.5
20260504013812 46 180 2.0 2.0 0.00 0.00 0.00 49 1009.5
20260504013016 47 206 2.0 2.0 0.00 0.00 0.00 48 1009.4
20260504012041 48 180 1.0 2.0 0.00 0.00 0.00 46 1009.3
20260504011517 48 196 1.0 2.0 0.00 0.00 0.00 45 1009.2
20260504010516 49 183 1.0 2.0 0.00 0.00 0.00 44 1009.1
20260504005808 50 270 1.0 4.0 0.00 0.00 0.00 42 1009.1
20260504004516 50 241 1.0 7.0 0.00 0.00 0.00 42 1009.0
20260504003517 50 316 2.0 8.0 0.00 0.00 0.00 40 1008.9
20260504002536 50 275 2.0 5.0 0.00 0.00 0.00 40 1008.8
20260504001537 51 226 1.0 4.0 0.00 0.00 0.00 39 1008.6
20260504000819 52 225 2.0 1.0 0.00 0.00 0.00 37 1008.6
20260504000016 52 309 3.0 6.0 0.00 0.00 0.00 36 1008.5
20260503235356 53 338 3.0 9.0 0.00 0.00 0.00 34 1008.4
20260503234516 54 308 3.0 7.0 0.00 0.00 0.00 34 1008.3
20260503233809 54 270 5.0 5.0 0.00 0.00 0.00 33 1008.2
20260503232517 55 324 7.0 14.0 0.00 0.00 0.00 31 1008.1
20260503231813 56 270 5.0 12.0 0.00 0.00 0.00 31 1008.0
20260503231016 56 336 6.0 12.0 0.00 0.00 0.00 30 1007.9
20260503230309 56 338 7.0 14.0 0.00 0.00 0.00 29 1007.8
20260503225537 56 318 7.0 19.0 0.00 0.00 0.00 30 1007.8
20260503224614 56 180 7.0 11.0 0.00 0.00 0.00 30 1007.7
20260503223517 56 320 8.0 17.0 0.00 0.00 0.00 29 1007.6
20260503222516 56 316 7.0 16.0 0.00 0.00 0.00 29 1007.6
20260503221834 57 315 4.0 11.0 0.00 0.00 0.00 28 1007.6
20260503220515 57 295 3.0 16.0 0.00 0.00 0.00 28 1007.6
20260503215516 57 330 7.0 19.0 0.00 0.00 0.00 27 1007.6
20260503214516 58 320 7.0 18.0 0.00 0.00 0.00 26 1007.7
20260503213809 60 293 4.0 10.0 0.00 0.00 0.00 25 1007.7
20260503212810 60 135 5.0 10.0 0.00 0.00 0.00 27 1007.7
20260503211808 60 0 6.0 6.0 0.00 0.00 0.00 27 1007.7
20260503211016 59 314 7.0 20.0 0.00 0.00 0.00 26 1007.7
20260503210016 60 291 6.0 20.0 0.00 0.00 0.00 27 1007.7
20260503205017 60 307 6.0 12.0 0.00 0.00 0.00 27 1007.8
20260503204407 60 45 6.0 8.0 0.00 0.00 0.00 28 1007.9
20260503203516 60 323 7.0 17.0 0.00 0.00 0.00 27 1007.9
20260503202555 59 45 5.0 6.0 0.00 0.00 0.00 29 1008.0
20260503201821 59 90 5.0 10.0 0.00 0.00 0.00 29 1008.0
20260503201017 58 319 5.0 18.0 0.00 0.00 0.00 30 1008.0
20260503200017 58 304 5.0 10.0 0.00 0.00 0.00 30 1008.2
20260503195329 57 315 4.0 5.0 0.00 0.00 0.00 32 1008.4
20260503194313 58 315 5.0 15.0 0.00 0.00 0.00 30 1008.5
20260503193017 58 331 7.0 14.0 0.00 0.00 0.00 30 1008.6
20260503192015 56 325 7.0 23.0 0.00 0.00 0.00 31 1008.6
20260503191017 55 305 7.0 18.0 0.00 0.00 0.00 32 1008.7
20260503190351 56 315 4.0 8.0 0.00 0.00 0.00 33 1008.9
20260503185309 55 45 6.0 9.0 0.00 0.00 0.00 33 1009.0
20260503184517 55 311 7.0 15.0 0.00 0.00 0.00 33 1009.0
20260503183810 55 338 5.0 13.0 0.00 0.00 0.00 33 1009.1
20260503182516 56 320 6.0 18.0 0.00 0.00 0.00 34 1009.1
20260503181515 55 333 5.0 17.0 0.00 0.00 0.00 35 1009.2
20260503180516 54 323 7.0 13.0 0.00 0.00 0.00 35 1009.2
20260503175520 53 323 8.0 22.0 0.00 0.00 0.00 35 1009.3
20260503174834 53 315 6.0 10.0 0.00 0.00 0.00 37 1009.4
20260503174016 53 321 8.0 17.0 0.00 0.00 0.00 37 1009.4
20260503173018 52 324 6.0 14.0 0.00 0.00 0.00 39 1009.5
20260503172016 52 327 6.0 14.0 0.00 0.00 0.00 39 1009.5
20260503171313 51 315 5.0 10.0 0.00 0.00 0.00 42 1009.5
20260503170356 50 0 5.0 11.0 0.00 0.00 0.00 42 1009.5
20260503150901 48 315 4.0 11.0 0.00 0.00 0.00 49 1010.1
20260503140313 50 315 5.0 10.0 0.00 0.00 0.00 47 1010.3
20260503130516 45 325 5.0 11.0 0.00 0.00 0.00 60 1010.5
20260503110309 40 293 4.0 7.0 0.00 0.00 0.00 68 1010.0
20260503081017 39 323 5.0 9.0 0.00 0.00 0.00 68 1010.4
20260503080356 39 270 3.0 5.0 0.00 0.00 0.00 67 1010.5
20260503072516 38 315 4.0 12.0 0.00 0.00 0.00 67 1010.5
20260503071516 38 292 4.0 11.0 0.00 0.00 0.00 67 1010.5
20260503070517 37 315 4.0 10.0 0.00 0.00 0.00 67 1010.6
20260503055015 38 321 4.0 8.0 0.00 0.00 0.00 64 1011.2
20260503054342 38 45 3.0 5.0 0.00 0.00 0.00 64 1011.3
20260503053016 38 305 4.0 9.0 0.00 0.00 0.00 64 1011.4
20260503052312 39 293 3.0 5.0 0.00 0.00 0.00 63 1011.4
20260503051516 39 306 4.0 9.0 0.00 0.00 0.00 64 1011.4
20260503050515 39 314 4.0 10.0 0.00 0.00 0.00 63 1011.5
20260503045808 39 293 4.0 9.0 0.00 0.00 0.00 63 1011.6
20260503044536 39 321 4.0 9.0 0.00 0.00 0.00 62 1011.6
20260503043917 39 315 3.0 6.0 0.00 0.01 0.00 62 1011.7
20260503042909 40 225 3.0 3.0 0.00 0.01 0.00 61 1011.7
20260503041516 40 294 4.0 10.0 0.00 0.01 0.00 61 1011.7
20260503040909 41 315 4.0 4.0 0.00 0.01 0.00 60 1011.8
20260503035815 41 315 3.0 9.0 0.00 0.01 0.01 59 1011.9
20260503034517 41 309 4.0 11.0 0.00 0.01 0.01 58 1011.9
20260503033516 41 317 4.0 9.0 0.00 0.01 0.01 58 1011.8
20260503032848 41 315 3.0 10.0 0.00 0.01 0.01 57 1011.8
20260503032016 41 287 4.0 7.0 0.00 0.01 0.01 58 1011.8
20260503031307 42 0 3.0 1.0 0.00 0.01 0.01 59 1011.9
20260503030017 41 315 3.0 10.0 0.00 0.01 0.01 58 1012.0
20260503025036 41 274 2.0 6.0 0.00 0.01 0.01 59 1012.0
20260503024128 41 225 2.0 2.0 0.00 0.01 0.01 58 1012.0
20260503023517 41 211 2.0 5.0 0.00 0.01 0.01 59 1012.1
20260503022808 41 203 1.0 3.0 0.00 0.02 0.01 59 1012.1